TimeGMT,TemperatureF,Dew PointF,Humidity,Sea Level PressureIn,VisibilityMPH,Wind Direction,Wind SpeedMPH,Gust SpeedMPH,PrecipitationIn,Events,Conditions,WindDirDegrees,DateUTC
12:50 AM,41.0,35.6,81,29.44,6.2,West,13.8,-,N/A,,Mostly Cloudy,260,2012-12-07 00:50:00
1:50 AM,41.0,35.6,81,29.44,6.2,West,13.8,-,N/A,,Mostly Cloudy,260,2012-12-07 01:50:00
2:50 AM,38,33,77,29.46,19,West,10.4,,,,Scattered Clouds,270,2012-12-07 02:50:00
2:50 AM,37.4,33.8,87,29.44,6.2,West,10.4,-,N/A,,Partly Cloudy,270,2012-12-07 02:50:00
3:50 AM,37.4,32.0,81,29.44,-9999.0,West,10.4,-,N/A,,Clear,260,2012-12-07 03:50:00
4:50 AM,37.4,32.0,81,29.44,-9999.0,West,12.7,-,N/A,,Clear,260,2012-12-07 04:50:00
5:50 AM,37,33,79,29.47,19,West,11.5,,,,Partly Cloudy,270,2012-12-07 05:50:00
5:50 AM,37.4,33.8,87,29.44,6.2,West,11.5,-,N/A,,Scattered Clouds,270,2012-12-07 05:50:00
6:50 AM,35.6,33.8,93,29.47,6.2,West,10.4,-,N/A,,Scattered Clouds,270,2012-12-07 06:50:00
7:50 AM,37.4,32.0,81,29.47,6.2,West,11.5,-,N/A,Rain,Light Rain,260,2012-12-07 07:50:00
8:50 AM,37,34,84,29.52,16,WNW,12.7,,,Snow,Light Snow Showers,300,2012-12-07 08:50:00
8:50 AM,37.4,33.8,87,29.50,6.2,WNW,12.7,-,N/A,,Mostly Cloudy,300,2012-12-07 08:50:00
9:50 AM,39.2,35.6,87,29.53,6.2,WNW,13.8,-,N/A,,Mostly Cloudy,300,2012-12-07 09:50:00
10:50 AM,41.0,33.8,76,29.56,6.2,NW,13.8,-,N/A,,Partly Cloudy,310,2012-12-07 10:50:00
11:50 AM,43,34,60,29.61,22,WNW,15.0,,,,Partly Cloudy,300,2012-12-07 11:50:00
11:50 AM,42.8,33.8,70,29.59,6.2,WNW,15.0,-,N/A,,Partly Cloudy,300,2012-12-07 11:50:00
12:50 PM,44.6,33.8,66,29.59,6.2,WNW,13.8,-,N/A,,Partly Cloudy,300,2012-12-07 12:50:00
1:50 PM,42.8,35.6,76,29.62,6.2,WNW,12.7,-,N/A,,Mostly Cloudy,300,2012-12-07 13:50:00
2:50 PM,42,36,72,29.66,19,WNW,10.4,,,,Mostly Cloudy,300,2012-12-07 14:50:00
2:50 PM,42.8,35.6,76,29.62,6.2,WNW,10.4,-,N/A,,Mostly Cloudy,300,2012-12-07 14:50:00
3:50 PM,41.0,33.8,76,29.65,6.2,NW,12.7,25.3,N/A,,Partly Cloudy,320,2012-12-07 15:50:00
4:50 PM,39.2,32.0,75,29.71,6.2,NNW,11.5,-,N/A,,Partly Cloudy,330,2012-12-07 16:50:00
5:50 PM,40,31,61,29.79,17,NNW,18.4,,,,Scattered Clouds,330,2012-12-07 17:50:00
5:50 PM,39.2,32.0,75,29.77,6.2,NNW,18.4,-,N/A,,Partly Cloudy,330,2012-12-07 17:50:00
6:50 PM,41.0,32.0,70,29.80,6.2,NNW,13.8,-,N/A,,Mostly Cloudy,330,2012-12-07 18:50:00
7:50 PM,41.0,33.8,76,29.86,6.2,NNW,15.0,-,N/A,,Overcast,330,2012-12-07 19:50:00
8:50 PM,42,34,66,29.90,14,NNW,13.8,,,,Overcast,340,2012-12-07 20:50:00
8:50 PM,41.0,33.8,76,29.89,6.2,NNW,13.8,-,N/A,,Overcast,340,2012-12-07 20:50:00
9:50 PM,41.0,35.6,81,29.92,6.2,NNW,15.0,-,N/A,,Mostly Cloudy,340,2012-12-07 21:50:00
10:50 PM,41.0,35.6,81,29.98,6.2,NNW,13.8,-,N/A,,Mostly Cloudy,340,2012-12-07 22:50:00
11:50 PM,40,36,80,30.02,12,NNW,9.2,,,,Scattered Clouds,340,2012-12-07 23:50:00
11:50 PM,41.0,35.6,81,30.01,6.2,NNW,9.2,-,N/A,,Mostly Cloudy,340,2012-12-07 23:50:00